Miscellaneous Local Product
Issued by NWS Hastings, NE

Home | Current Version | Previous Version | Text Only | Print | Product List | Glossary Off
Versions: 1 2 3 4 5 6 7 8 9 10 11 12 13 14 15 16 17 18 19 20 21 22 23 24 25 26 27 28 29 30 31 32 33 34 35 36 37 38 39 40 41 42 43 44 45 46 47 48 49 50

000
AXUS43 KGID 010302
MISGRI

GID CWA HOURLY WEATHER ROUNDUP
NATIONAL WEATHER SERVICE HASTINGS NE
1000 PM CDT SUN AUG 31 2014

NOTE: "FAIR" INDICATES FEW OR NO CLOUDS BELOW 12,000 FEET WITH NO
SIGNIFICANT WEATHER AND/OR OBSTRUCTIONS TO VISIBILITY.

...SOUTH CENTRAL NEBRASKA...

CITY           SKY/WX    TMP DP  RH WIND       PRES   REMARKS
GRAND ISLAND   CLOUDY    66  61  84 N3        29.69F
HASTINGS       CLOUDY    65  60  84 CALM      29.71S
KEARNEY        MOCLDY    66  59  77 CALM      29.72F
ORD            PTCLDY    63  58  83 SE7       29.72R
YORK           CLOUDY    64 N/A N/A N7        29.69F
AURORA         CLOUDY    64  64  98 CALM      29.68F
LEXINGTON      PTCLDY    62  60  92 CALM      29.76R
HOLDREGE       MOCLDY    65  60  85 CALM      29.75R
HEBRON         CLOUDY    68  64  86 SE5       29.64F

...NEBRASKA PANHANDLE...

CITY           SKY/WX    TMP DP  RH WIND       PRES   REMARKS
CHADRON        MOCLDY    55  53  93 SW3       29.88R
ALLIANCE       CLEAR     54  51  90 N5        29.89R
SCOTTSBLUFF    CLEAR     56  48  74 W7        29.92R
SIDNEY         CLEAR     59  47  64 N9        29.94R

...WESTERN AND NORTH CENTRAL NEBRASKA...

CITY           SKY/WX    TMP DP  RH WIND       PRES   REMARKS
VALENTINE      MOCLDY    59  56  89 NW14G23   29.78R
AINSWORTH      MOCLDY    64  59  86 W7        29.78R
ONEILL         CLEAR     61  60  98 N3        29.73R
BROKEN BOW     CLEAR     62  56  80 W8        29.74S
IMPERIAL       PTCLDY    67  53  61 W15       29.83R
NORTH PLATTE   CLEAR     63  56  78 W16       29.79R
MCCOOK         PTCLDY    62  59  90 S7        29.79R

...EASTERN NEBRASKA...

CITY           SKY/WX    TMP DP  RH WIND       PRES   REMARKS
NORFOLK        MOCLDY    64  62  93 CALM      29.71R
SO SIOUX CITY  CLOUDY    65  64  97 SW3       29.67S
TEKAMAH        CLOUDY    67  65  93 S8        29.66F
ALBION         MOCLDY    62  59  91 CALM      29.72R
OMAHA EPPLEY   CLOUDY    70  66  87 SE9       29.66F
OFFUTT AFB     CLOUDY    69  69 100 E6        29.65F
MILLARD        CLOUDY    69  66  90 CALM      29.66F
LINCOLN        CLOUDY    69  65  86 E5        29.67S
NEBRASKA CITY  CLOUDY    70  70 100 S3        29.70F
BEATRICE       CLOUDY    71  66  84 SE7       29.68S
FALLS CITY     TSTM      69  65  86 S13       29.70F

...NORTHERN KANSAS...

CITY           SKY/WX    TMP DP  RH WIND       PRES   REMARKS
GOODLAND       MOCLDY    61  57  87 N3        29.85R
HILL CITY      TSTM      70  62  76 SW10      29.84R
NORTON         PTCLDY    68  55  64 S6        29.79R
PHILLIPSBURG   RAIN      68  63  83 S6        29.76F
SMITH CENTER   LGT RAIN  68  63  83 NE7       29.73R
HAYS           CLOUDY    70  61  73 E10       29.75R
RUSSELL        TSTM      69  66  90 NE10      29.73R
CONCORDIA      CLOUDY    69  68  96 E6        29.66F
SALINA         TSTM      70  66  87 S7        29.75R FOG
TOPEKA         TSTM      68  68 100 NW7G31    29.84R VSB 3/4



USA.gov is the U.S. government's official web portal to all federal, state and local government web resources and services.